Time,TemperatureF,DewpointF,PressureIn,WindDirection,WindDirectionDegrees,WindSpeedMPH,WindSpeedGustMPH,Humidity,HourlyPrecipIn,Conditions,Clouds,dailyrainin,SolarRadiationWatts/m^2,SoftwareType,DateUTC
2013-01-06 12:12:00,32.0,32.0,-100.00,WSW,244,1.0,6.0,100,0.01,,,-99.99,20.000000,,2013-01-06 21:12:00,
2013-01-06 12:43:00,32.0,32.0,-100.00,WSW,241,1.0,4.0,100,-99.99,,,0.00,39.000000,,2013-01-06 21:43:00,
2013-01-06 12:53:00,32.0,32.0,-100.00,WSW,241,1.0,4.0,100,-99.99,,,0.00,39.000000,,2013-01-06 21:53:00,
2013-01-06 13:02:00,32.0,32.0,-100.00,WSW,241,1.0,4.0,100,-99.99,,,0.00,39.000000,,2013-01-06 22:02:00,
2013-01-06 13:12:00,32.0,32.0,-100.00,WSW,241,1.0,4.0,100,-99.99,,,0.00,39.000000,,2013-01-06 22:12:00,
2013-01-06 13:22:00,32.0,32.0,-100.00,WSW,241,1.0,4.0,100,-99.99,,,0.00,39.000000,,2013-01-06 22:22:00,
2013-01-06 13:43:00,32.0,32.0,-100.00,SSW,203,0.0,3.0,100,0.00,,,0.00,26.000000,,2013-01-06 22:43:00,
2013-01-06 13:52:00,32.0,32.0,-100.00,SSW,203,0.0,3.0,100,0.00,,,0.00,26.000000,,2013-01-06 22:52:00,
2013-01-06 14:02:00,32.0,32.0,-100.00,SSW,203,0.0,3.0,100,0.00,,,0.00,26.000000,,2013-01-06 23:02:00,
2013-01-06 14:12:00,32.0,32.0,-100.00,SSW,203,0.0,3.0,100,0.00,,,0.00,26.000000,,2013-01-06 23:12:00,
2013-01-06 14:22:00,32.0,32.0,-100.00,SSW,203,0.0,3.0,100,0.00,,,0.00,26.000000,,2013-01-06 23:22:00,
2013-01-06 14:43:00,32.0,32.0,-100.00,SSW,193,1.0,2.0,100,0.00,,,0.00,35.000000,,2013-01-06 23:43:00,
2013-01-06 14:53:00,32.0,32.0,-100.00,SSW,193,1.0,2.0,100,0.00,,,0.00,35.000000,,2013-01-06 23:53:00,
2013-01-06 15:02:00,32.0,32.0,-100.00,SSW,193,1.0,2.0,100,0.00,,,0.00,35.000000,,2013-01-07 00:02:00,
2013-01-06 15:12:00,32.0,32.0,-100.00,SSW,193,1.0,2.0,100,0.00,,,0.00,35.000000,,2013-01-07 00:12:00,
2013-01-06 15:22:00,32.0,32.0,-100.00,SSW,193,1.0,2.0,100,0.00,,,0.00,35.000000,,2013-01-07 00:22:00,
2013-01-06 15:43:00,32.0,32.0,-100.00,SSE,163,1.0,2.0,100,0.00,,,0.00,14.000000,,2013-01-07 00:43:00,
2013-01-06 15:53:00,32.0,32.0,-100.00,SSE,163,1.0,2.0,100,0.00,,,0.00,14.000000,,2013-01-07 00:53:00,
2013-01-06 16:02:00,32.0,32.0,-100.00,SSE,163,1.0,2.0,100,0.00,,,0.00,14.000000,,2013-01-07 01:02:00,
2013-01-06 16:12:00,32.0,32.0,-100.00,SSE,163,1.0,2.0,100,0.00,,,0.00,14.000000,,2013-01-07 01:12:00,
2013-01-06 16:22:00,32.0,32.0,-100.00,SSE,163,1.0,2.0,100,0.00,,,0.00,14.000000,,2013-01-07 01:22:00,
2013-01-06 16:43:00,32.0,32.0,-100.00,South,191,1.0,3.0,100,0.00,,,0.00,1.000000,,2013-01-07 01:43:00,
2013-01-06 16:53:00,32.0,32.0,-100.00,South,191,1.0,3.0,100,0.00,,,0.00,1.000000,,2013-01-07 01:53:00,
2013-01-06 17:02:00,32.0,32.0,-100.00,South,191,1.0,3.0,100,0.00,,,0.00,1.000000,,2013-01-07 02:02:00,
2013-01-06 17:12:00,32.0,32.0,-100.00,South,191,1.0,3.0,100,0.00,,,0.00,1.000000,,2013-01-07 02:12:00,
2013-01-06 17:22:00,32.0,32.0,-100.00,South,191,1.0,3.0,100,0.00,,,0.00,1.000000,,2013-01-07 02:22:00,
2013-01-06 17:43:00,32.0,32.0,-100.00,South,183,0.0,2.0,100,0.00,,,0.00,0.000000,,2013-01-07 02:43:00,
2013-01-06 17:53:00,32.0,32.0,-100.00,South,183,0.0,2.0,100,0.00,,,0.00,0.000000,,2013-01-07 02:53:00,
2013-01-06 18:02:00,32.0,32.0,-100.00,South,183,0.0,2.0,100,0.00,,,0.00,0.000000,,2013-01-07 03:02:00,
2013-01-06 18:12:00,32.0,32.0,-100.00,South,183,0.0,2.0,100,0.00,,,0.00,0.000000,,2013-01-07 03:12:00,
2013-01-06 18:22:00,32.0,32.0,-100.00,South,183,0.0,2.0,100,0.00,,,0.00,0.000000,,2013-01-07 03:22:00,
2013-01-06 18:43:00,32.0,32.0,-100.00,SE,141,1.0,2.0,100,0.00,,,0.00,0.000000,,2013-01-07 03:43:00,
2013-01-06 18:53:00,32.0,32.0,-100.00,SE,141,1.0,2.0,100,0.00,,,0.00,0.000000,,2013-01-07 03:53:00,
2013-01-06 19:02:00,32.0,32.0,-100.00,SE,141,1.0,2.0,100,0.00,,,0.00,0.000000,,2013-01-07 04:02:00,
2013-01-06 19:12:00,32.0,32.0,-100.00,SE,141,1.0,2.0,100,0.00,,,0.00,0.000000,,2013-01-07 04:12:00,
2013-01-06 19:22:00,32.0,32.0,-100.00,SE,141,1.0,2.0,100,0.00,,,0.00,0.000000,,2013-01-07 04:22:00,
2013-01-06 19:42:00,32.0,32.0,-100.00,SE,143,1.0,3.0,100,0.00,,,0.00,0.000000,,2013-01-07 04:42:00,
2013-01-06 19:52:00,32.0,32.0,-100.00,SE,143,1.0,3.0,100,0.00,,,0.00,0.000000,,2013-01-07 04:52:00,
2013-01-06 20:02:00,32.0,32.0,-100.00,SE,143,1.0,3.0,100,0.00,,,0.00,0.000000,,2013-01-07 05:02:00,
2013-01-06 20:12:00,32.0,32.0,-100.00,SE,143,1.0,3.0,100,0.00,,,0.00,0.000000,,2013-01-07 05:12:00,
2013-01-06 20:22:00,32.0,32.0,-100.00,SE,143,1.0,3.0,100,0.00,,,0.00,0.000000,,2013-01-07 05:22:00,
2013-01-06 20:43:00,32.0,32.0,-100.00,SSE,154,1.0,4.0,100,0.00,,,0.00,0.000000,,2013-01-07 05:43:00,
2013-01-06 20:53:00,32.0,32.0,-100.00,SSE,154,1.0,4.0,100,0.00,,,0.00,0.000000,,2013-01-07 05:53:00,
2013-01-06 21:02:00,32.0,32.0,-100.00,SSE,154,1.0,4.0,100,0.00,,,0.00,0.000000,,2013-01-07 06:02:00,
2013-01-06 21:12:00,32.0,32.0,-100.00,SSE,154,1.0,4.0,100,0.00,,,0.00,0.000000,,2013-01-07 06:12:00,
2013-01-06 21:22:00,32.0,32.0,-100.00,SSE,154,1.0,4.0,100,0.00,,,0.00,0.000000,,2013-01-07 06:22:00,
2013-01-06 21:42:00,34.0,32.0,-100.00,ENE,63,1.0,5.0,94,0.00,,,0.00,0.000000,,2013-01-07 06:42:00,
2013-01-06 21:52:00,34.0,32.0,-100.00,ENE,63,1.0,5.0,94,0.00,,,0.00,0.000000,,2013-01-07 06:52:00,
2013-01-06 22:02:00,34.0,32.0,-100.00,ENE,63,1.0,5.0,94,0.00,,,0.00,0.000000,,2013-01-07 07:02:00,
2013-01-06 22:11:00,34.0,32.0,-100.00,ENE,63,1.0,5.0,94,0.00,,,0.00,0.000000,,2013-01-07 07:11:00,
2013-01-06 22:22:00,34.0,32.0,-100.00,ENE,63,1.0,5.0,94,0.00,,,0.00,0.000000,,2013-01-07 07:22:00,
2013-01-06 22:43:00,32.0,32.0,-100.00,South,169,1.0,3.0,100,0.00,,,0.00,0.000000,,2013-01-07 07:43:00,
2013-01-06 22:52:00,32.0,32.0,-100.00,South,169,1.0,3.0,100,0.00,,,0.00,0.000000,,2013-01-07 07:52:00,
2013-01-06 23:02:00,32.0,32.0,-100.00,South,169,1.0,3.0,100,0.00,,,0.00,0.000000,,2013-01-07 08:02:00,
2013-01-06 23:11:00,32.0,32.0,-100.00,South,169,1.0,3.0,100,0.00,,,0.00,0.000000,,2013-01-07 08:11:00,
2013-01-06 23:22:00,32.0,32.0,-100.00,South,169,1.0,3.0,100,0.00,,,0.00,0.000000,,2013-01-07 08:22:00,
2013-01-06 23:43:00,32.0,32.0,-100.00,South,170,1.0,2.0,100,0.00,,,0.00,0.000000,,2013-01-07 08:43:00,
2013-01-06 23:53:00,32.0,32.0,-100.00,South,170,1.0,2.0,100,0.00,,,0.00,0.000000,,2013-01-07 08:53:00,